This demonstration page uses our WeatherBlox Daily Observations layout. Learn more.

Left ArrowRight Arrow

Hourly Observations for May 28, 2022

Temp ( °F °C ) Dew Point ( °F °C ) Humidity (%) Winds ( mph kmh ) Pressure ( in mb ) Visibility ( mi km ) Precip ( " mm )
12:09 am 00:09 Mostly Cloudy 61 16.1 60 15.6 97 97 WNW 5 7 29.85 1011 10 16 0.00 0.00
12:53 am 00:53 Cloudy 59 15 57 13.9 93 93 WNW 16 26 29.86 1011 10 16 0.00 0.00
1:53 am 01:53 Cloudy 58 14.4 56 13.3 93 93 VRB 7 11 29.87 1012 10 16 0.00 0.00
2:53 am 02:53 Cloudy 58 14.4 56 13.3 93 93 VRB 3 6 29.87 1011 10 16 0.00 0.00
3:21 am 03:21 Cloudy 58 14.4 56 13.3 93 93 VRB 3 6 29.87 1011 10 16 0.00 0.00
3:30 am 03:30 Cloudy 58 14.4 56 13.3 93 93 W 3 6 29.87 1011 10 16 0.00 0.00
3:53 am 03:53 Cloudy 58 14.4 56 13.3 93 93 W 6 9 29.87 1012 10 16 0.00 0.00
3:59 am 03:59 Cloudy 58 14.4 56 13.3 93 93 VRB 3 6 29.88 1012 10 16 0.00 0.00
4:08 am 04:08 Cloudy 58 14.4 55 12.8 90 90 VRB 5 7 29.88 1012 10 16 0.00 0.00
4:53 am 04:53 Cloudy 57 13.9 54 12.2 90 90 VRB 5 7 29.89 1012 10 16 0.00 0.00
5:53 am 05:53 Cloudy 57 13.9 52 11.1 83 83 W 5 7 29.91 1013 10 16 0.00 0.00
6:53 am 06:53 Cloudy 56 13.3 52 11.1 87 87 VRB 5 7 29.93 1014 10 16 0.00 0.00
7:53 am 07:53 Cloudy 57 13.9 52 11.1 83 83 W 3 6 29.95 1014 10 16 0.00 0.00
8:03 am 08:03 Cloudy 57 13.9 52 11.1 83 83 WNW 6 9 29.96 1015 10 16 0.00 0.00
8:53 am 08:53 Cloudy 57 13.9 52 11.1 83 83 WNW 3 6 29.96 1015 10 16 0.00 0.00
9:51 am 09:51 Cloudy 59 15 54 12 82 82 Calm 29.98 1015 10 16 0.00 0.00
9:53 am 09:53 Cloudy 59 15 53 11.7 81 81 Calm 29.98 1015 10 16 0.00 0.00
10:18 am 10:18 Cloudy 61 16.1 55 12.8 81 81 Calm 29.97 1015 10 16 0.00 0.00
10:53 am 10:53 Cloudy 62 16.7 56 13.3 80 80 VRB 3 6 29.97 1015 10 16 0.00 0.00
11:37 am 11:37 Cloudy 63 17.2 57 13.9 81 81 VRB 3 6 29.98 1015 10 16 0.00 0.00
11:46 am 11:46 Cloudy 65 18.3 58 14.4 78 78 Calm 29.98 1015 10 16 0.00 0.00
11:53 am 11:53 Cloudy 64 17.8 57 13.9 78 78 W 7 11 29.98 1015 10 16 0.00 0.00
12:53 pm 12:53 Cloudy 67 19.4 59 15 76 76 W 6 9 29.98 1015 10 16 0.00 0.00
1:53 pm 13:53 Cloudy 69 20.6 59 15 70 70 VRB 3 6 29.97 1015 10 16 0.00 0.00
2:53 pm 14:53 Cloudy 70 21.1 59 15 68 68 VRB 3 6 29.96 1015 10 16 0.00 0.00
3:19 pm 15:19 Cloudy 72 22.2 59 15 64 64 Calm 29.95 1014 10 16 0.00 0.00
3:53 pm 15:53 Mostly Cloudy 72 22.2 59 15 64 64 VRB 3 6 29.96 1015 10 16 0.00 0.00
4:53 pm 16:53 Mostly Cloudy 74 23.3 60 15.6 62 62 W 6 9 29.94 1014 10 16 0.00 0.00
5:53 pm 17:53 Cloudy 74 23.3 60 15.6 62 62 NW 6 9 29.93 1014 10 16 0.00 0.00
6:53 pm 18:53 Mostly Sunny 74 23.3 60 15.6 62 62 Calm 29.92 1013 10 16 0.00 0.00
7:53 pm 19:53 Sunny 71 21.7 62 16.7 73 73 Calm 29.93 1013 10 16 0.00 0.00
8:53 pm 20:53 Mostly Sunny 65 18.3 61 16.1 87 87 Calm 29.94 1014 10 16 0.00 0.00
9:53 pm 21:53 Clear 63 17.2 59 15 87 87 Calm 29.93 1014 10 16 0.00 0.00
10:53 pm 22:53 Clear 65 18.3 61 16.1 87 87 Calm 29.96 1015 10 16 0.00 0.00
11:53 pm 23:53 Clear 65 18.3 60 15.6 84 84 VRB 3 6 29.96 1015 10 16 0.00 0.00

Powered by AerisWeather